(130691) = 2000 SW145 = 2002 CZ107 = 2004 WD12

Discovered at Socorro on 2000-09-24 by LINEAR.

Orbit

Orbit type: Main Belt

Note: WebGL enabled browser required.

epoch2024-03-31.0
epoch JD2460400.5
perihelion date2023-04-22.42601
perihelion JD2460056.92601
argument of perihelion (°)60.43332
ascending node (°)14.27246
inclination (°)6.54619
eccentricity0.0798595
perihelion distance (AU)2.1916445
Tisserand w.r.t. Jupiter3.5
ΔV w.r.t. Earth (km/sec)9.4
semimajor axis (AU)2.3818585
mean anomaly (°)92.11920
mean daily motion (°/day)0.26812040
aphelion distance (AU)2.572
period (years)3.68
P-vector [x]0.26517380
P-vector [y]0.84050322
P-vector [z]0.47247983
Q-vector [x]-0.96379091
Q-vector [y]0.21677257
Q-vector [z]0.15529564
absolute magnitude15.93
phase slope0.15
uncertainty0
referenceMPEC 2024-F62
observations used1330
oppositions16
arc length (days)8578
first opposition used2000
last opposition used2024
residual rms (arc-secs)0.64
perturbers coarse indicatorM-v
perturbers precise indicator003Ek
first observation date used2000-09-24.0
last observation date used2024-03-19.0
computer nameMPCLINUX
JD of orbit computation2456877.749001
perihelion JD uncertainty (days)2.0049E-04
argument of perihelion uncertainty (°)6.9804E-05
ascending node uncertainty (°)4.5609E-05
inclination uncertainty (°)7.2860E-06
eccentricity uncertainty 4.3652E-08
perihelion distance uncertainty (AU)1.0552E-07
Minimum Orbit Intersection Distances (in AU)
for orbit epoch: 2460400.5, reference: E2024-GH2
Mercury1.88443
Venus1.47644
Earth1.21481
Mars0.62507
Jupiter2.60572
Saturn6.86432
Uranus16.0432
Neptune27.5619

Observations

1366 total observations over interval: 2000 09 24.40446 – 2024 03 19.989392
These data are available for download (format description).

Date (UT) J2000 RA J2000 Dec Magn Location Ref
2000 09 24.40446 01 42 11.24 +11 01 02.5 19.0   704 – Lincoln Laboratory ETS, New Mexico MPS 20033
2000 09 24.41894 01 42 10.54 +11 01 01.9 18.9   704 – Lincoln Laboratory ETS, New Mexico MPS 20033
2000 09 24.43335 01 42 09.85 +11 01 01.7 19.2   704 – Lincoln Laboratory ETS, New Mexico MPS 20033
2000 09 24.44777 01 42 09.16 +11 01 01.6 19.5   704 – Lincoln Laboratory ETS, New Mexico MPS 20033
2000 09 24.46220 01 42 08.49 +11 01 00.2 19.5   704 – Lincoln Laboratory ETS, New Mexico MPS 20033
2000 09 25.33593 01 41 28.82 +11 00 35.6 18.5 R 699 – Lowell Observatory-LONEOS MPS 30147
2000 09 25.35363 01 41 28.10 +11 00 33.7   699 – Lowell Observatory-LONEOS MPS 30147
2000 09 25.37128 01 41 27.26 +11 00 34.3   699 – Lowell Observatory-LONEOS MPS 30147
2000 09 25.38895 01 41 26.43 +11 00 33.2   699 – Lowell Observatory-LONEOS MPS 30147
2000 09 28.27648 01 39 06.40 +10 58 24.6 19.2   704 – Lincoln Laboratory ETS, New Mexico MPS 20033
2000 09 28.29155 01 39 05.58 +10 58 23.2 19.3   704 – Lincoln Laboratory ETS, New Mexico MPS 20033
2000 09 28.30660 01 39 04.78 +10 58 22.5 19.4   704 – Lincoln Laboratory ETS, New Mexico MPS 20033
2000 09 28.32167 01 39 04.05 +10 58 22.3 19.8   704 – Lincoln Laboratory ETS, New Mexico MPS 20033
2000 09 28.33670 01 39 03.24 +10 58 20.5 19.6   704 – Lincoln Laboratory ETS, New Mexico MPS 20033
2000 10 01.33075 01 36 25.82 +10 55 04.1 19.2   704 – Lincoln Laboratory ETS, New Mexico MPS 20033
2000 10 01.34583 01 36 24.95 +10 55 03.0 19.5   704 – Lincoln Laboratory ETS, New Mexico MPS 20033
2000 10 01.36090 01 36 24.10 +10 55 01.4 19.7   704 – Lincoln Laboratory ETS, New Mexico MPS 20033
2000 10 01.37598 01 36 23.23 +10 55 00.1 19.6   704 – Lincoln Laboratory ETS, New Mexico MPS 20033
2000 10 01.39107 01 36 22.40 +10 54 58.6 19.4   704 – Lincoln Laboratory ETS, New Mexico MPS 20033
2000 10 02.37530 01 35 28.28 +10 53 42.0 18.7   704 – Lincoln Laboratory ETS, New Mexico MPS 20033
2000 10 02.39024 01 35 27.36 +10 53 40.6 19.1   704 – Lincoln Laboratory ETS, New Mexico MPS 20033
2000 10 02.40572 01 35 26.49 +10 53 39.4 19.1   704 – Lincoln Laboratory ETS, New Mexico MPS 20033
2000 10 02.42064 01 35 25.61 +10 53 37.9 19.0   704 – Lincoln Laboratory ETS, New Mexico MPS 20033
2000 10 02.43566 01 35 24.74 +10 53 35.5 19.2   704 – Lincoln Laboratory ETS, New Mexico MPS 20033
2000 10 07.31005 01 30 42.37 +10 45 46.8 18.4 R 699 – Lowell Observatory-LONEOS MPS 21273
2000 10 07.35197 01 30 39.73 +10 45 42.0   699 – Lowell Observatory-LONEOS MPS 21273
2000 10 07.39392 01 30 37.17 +10 45 37.5   699 – Lowell Observatory-LONEOS MPS 21273
2000 10 07.43596 01 30 34.52 +10 45 32.5   699 – Lowell Observatory-LONEOS MPS 21273
2000 10 24.26992 01 13 09.07 +10 07 26.6 18.5   704 – Lincoln Laboratory ETS, New Mexico MPS 21273
2000 10 24.31098 01 13 06.51 +10 07 22.0 19.0   704 – Lincoln Laboratory ETS, New Mexico MPS 21273
2000 10 24.32469 01 13 05.69 +10 07 19.8 18.8   704 – Lincoln Laboratory ETS, New Mexico MPS 21273
2000 10 31.21421 01 06 34.03 +09 51 34.1 18.7   704 – Lincoln Laboratory ETS, New Mexico MPS 21273
2000 10 31.22870 01 06 33.19 +09 51 32.4 19.2   704 – Lincoln Laboratory ETS, New Mexico MPS 21273
2000 10 31.24268 01 06 32.40 +09 51 30.2 19.2   704 – Lincoln Laboratory ETS, New Mexico MPS 21273
2000 10 31.25664 01 06 31.63 +09 51 29.5 18.8   704 – Lincoln Laboratory ETS, New Mexico MPS 21273
2000 10 31.27089 01 06 30.86 +09 51 27.5 19.0   704 – Lincoln Laboratory ETS, New Mexico MPS 21273
2000 11 03.20708 01 04 01.00 +09 45 35.7 18.4   704 – Lincoln Laboratory ETS, New Mexico MPS 21273
2000 11 03.22055 01 04 00.31 +09 45 34.1 19.3   704 – Lincoln Laboratory ETS, New Mexico MPS 21273
2000 11 03.23403 01 03 59.62 +09 45 32.0 19.1   704 – Lincoln Laboratory ETS, New Mexico MPS 21273
2000 11 03.24751 01 03 58.90 +09 45 30.7 19.2   704 – Lincoln Laboratory ETS, New Mexico MPS 21273
2000 11 03.26100 01 03 58.17 +09 45 28.3 19.3   704 – Lincoln Laboratory ETS, New Mexico MPS 21273
2000 11 20.21387 00 54 09.96 +09 29 26.5 19.1   704 – Lincoln Laboratory ETS, New Mexico MPS 22503
2000 11 20.22874 00 54 09.66 +09 29 26.6 19.4   704 – Lincoln Laboratory ETS, New Mexico MPS 22503
2000 11 20.25847 00 54 09.04 +09 29 26.8 19.1   704 – Lincoln Laboratory ETS, New Mexico MPS 22503
2000 11 20.27332 00 54 08.72 +09 29 27.9 19.5   704 – Lincoln Laboratory ETS, New Mexico MPS 22503
2000 11 26.16193 00 52 51.52 +09 32 58.0 19.6 V 691 – Steward Observatory, Kitt Peak-Spacewatch MPS 22503
2000 11 26.18394 00 52 51.30 +09 32 59.3 19.5 V 691 – Steward Observatory, Kitt Peak-Spacewatch MPS 22503
2000 11 26.20636 00 52 51.09 +09 33 00.8 19.5 V 691 – Steward Observatory, Kitt Peak-Spacewatch MPS 22503
2002 02 07.39338 12 27 34.31 +01 48 05.5 18.7   704 – Lincoln Laboratory ETS, New Mexico MPS 50283
2002 02 07.40821 12 27 34.13 +01 48 06.4 19.9   704 – Lincoln Laboratory ETS, New Mexico MPS 50283
2002 02 07.42282 12 27 33.86 +01 48 06.7 19.4   704 – Lincoln Laboratory ETS, New Mexico MPS 50283
2002 02 07.43746 12 27 33.63 +01 48 06.8 19.7   704 – Lincoln Laboratory ETS, New Mexico MPS 50283
2002 02 07.45209 12 27 33.41 +01 48 07.2 19.2   704 – Lincoln Laboratory ETS, New Mexico MPS 50283
2002 02 10.45146 12 26 45.73 +01 50 01.5 19.2   704 – Lincoln Laboratory ETS, New Mexico MPS 50283
2002 02 10.46610 12 26 45.46 +01 50 02.8 19.6   704 – Lincoln Laboratory ETS, New Mexico MPS 50283
2002 02 10.48050 12 26 45.18 +01 50 04.1 20.0   704 – Lincoln Laboratory ETS, New Mexico MPS 50283
2002 02 10.49483 12 26 44.86 +01 50 04.4 19.3   704 – Lincoln Laboratory ETS, New Mexico MPS 50283
2002 02 10.50915 12 26 44.46 +01 50 06.3 19.7   704 – Lincoln Laboratory ETS, New Mexico MPS 50283
2002 02 12.45685 12 26 04.62 +01 52 03.0 19.0   704 – Lincoln Laboratory ETS, New Mexico MPS 52007
2002 02 12.49951 12 26 03.61 +01 52 06.4 19.3   704 – Lincoln Laboratory ETS, New Mexico MPS 52007
2002 02 12.51372 12 26 03.22 +01 52 07.7 19.3   704 – Lincoln Laboratory ETS, New Mexico MPS 52007
2002 02 20.31012 12 22 14.81 +02 05 24.2 19.1   704 – Lincoln Laboratory ETS, New Mexico MPS 52007
2002 02 20.32402 12 22 14.30 +02 05 26.4 19.0   704 – Lincoln Laboratory ETS, New Mexico MPS 52007
2002 02 20.33786 12 22 13.73 +02 05 27.6 19.4   704 – Lincoln Laboratory ETS, New Mexico MPS 52007
2002 02 20.35180 12 22 13.24 +02 05 29.7 19.4   704 – Lincoln Laboratory ETS, New Mexico MPS 52007
2002 02 20.36620 12 22 12.69 +02 05 31.7 19.2   704 – Lincoln Laboratory ETS, New Mexico MPS 52007
2002 02 24.47238 12 19 30.88 +02 15 34.1 20.0   644 – Palomar Mountain/NEAT MPS 52007
2002 02 24.48274 12 19 30.53 +02 15 35.7 20.1   644 – Palomar Mountain/NEAT MPS 52007
2002 02 24.49431 12 19 29.94 +02 15 37.0 20.1   644 – Palomar Mountain/NEAT MPS 52007
2002 03 05.36513 12 12 19.02 +02 42 41.0 18.8 R 699 – Lowell Observatory-LONEOS MPS 52007
2002 03 05.38083 12 12 18.14 +02 42 44.3   699 – Lowell Observatory-LONEOS MPS 52007
2002 03 05.39652 12 12 17.15 +02 42 47.2   699 – Lowell Observatory-LONEOS MPS 52007
2002 03 05.41224 12 12 16.35 +02 42 51.3   699 – Lowell Observatory-LONEOS MPS 52007
2002 03 06.28533 12 11 29.06 +02 45 48.7 18.6   644 – Palomar Mountain/NEAT MPS 52007
2002 03 06.35735 12 11 24.98 +02 46 03.9 18.7   644 – Palomar Mountain/NEAT MPS 52007
2002 03 06.42024 12 11 21.37 +02 46 16.8 19.0   644 – Palomar Mountain/NEAT MPS 52007
2002 03 09.37990 12 08 34.44 +02 56 35.9 18.7   704 – Lincoln Laboratory ETS, New Mexico MPS 52007
2002 03 09.40111 12 08 33.19 +02 56 39.7 19.2   704 – Lincoln Laboratory ETS, New Mexico MPS 52007
2002 03 09.42224 12 08 31.87 +02 56 43.0 19.1   704 – Lincoln Laboratory ETS, New Mexico MPS 52007
2002 03 09.44398 12 08 30.66 +02 56 49.3 19.4   704 – Lincoln Laboratory ETS, New Mexico MPS 52007
2002 03 09.46568 12 08 29.38 +02 56 54.0 19.0   704 – Lincoln Laboratory ETS, New Mexico MPS 52007
2002 03 11.30067 12 06 42.51 +03 03 27.5 19.2 R 683 – Goodricke-Pigott Observatory, Tucson MPS 54702
2002 03 11.31184 12 06 41.88 +03 03 28.7 18.9 R 683 – Goodricke-Pigott Observatory, Tucson MPS 54702
2002 03 11.32523 12 06 40.78 +03 03 29.9 19.7 R 683 – Goodricke-Pigott Observatory, Tucson MPS 54702
